Home   Weather   Kathua   Past weeks

Flag for India Past Weather in Kathua, Jammu and Kashmir, India — Yesterday and Last 2 Weeks

Now
93 °F

Haze.


Feels Like: 105 °F
Forecast: 74 / 97 °F
Wind: 6 mph from Northwest

Location: Amritsar Airport

Current Time: Oct 1, 2016 at 2:14:20 PM

Latest Report: Oct 1, 2016 at 1:30 PM


Visibility: 2 mi

Pressure: 29.80 "Hg

Humidity: 56%

Dew Point: 75 °F

Location of KathuaLocation

Past Weather in Kathua — Graph

°F

Kathua Temperature Yesterday

Maximum temperature yesterday: 93 °F (at 2:30 PM)
Minimum temperature yesterday: 79 °F (at 4:30 AM)
Average temperature yesterday: 85 °F

High & Low Weather Summary for the Past Weeks

 TemperatureHumidityPressure
High95 °F (Sep 17, 1:30 PM)100% (Sep 16, 8:30 PM)29.86 "Hg (Sep 16, 8:30 PM)
Low70 °F (Sep 27, 8:00 AM)56% (Sep 17, 12:00 PM)29.59 "Hg (Sep 20, 5:00 PM)
Average84 °F88%29.71 "Hg
* Reported Sep 16 12:30 PM — Oct 1 1:00 PM, Kathua, Weather by CustomWeather, © 2016

Note: Actual official high and low records may vary slightly from our data, if they occured in-between our weather recording intervals... More about our weather records

Advertising

Kathua Weather History for the Previous 24 Hours

Scroll right to see more
 ConditionsComfort  
Time TempWeatherWind HumidityBarometerVisibility
1:00 PM
Sat, Oct 1
91 °FHaze.6 mph63%29.80 "Hg2 mi
12:30 PM93 °FHaze.2 mph59%29.80 "Hg2 mi
12:00 PM91 °FHaze.3 mph63%29.83 "Hg2 mi
11:30 AM91 °FHaze.3 mph63%29.83 "Hg2 mi
11:00 AM90 °FHaze.2 mph63%29.83 "Hg2 mi
10:30 AM90 °FHaze.3 mph67%29.83 "Hg2 mi
10:00 AM90 °FFog.2 mph67%29.83 "Hg2 mi
9:30 AM88 °FFog.2 mph79%29.83 "Hg1 mi
9:00 AM86 °FFog.2 mph94%29.83 "Hg1 mi
8:30 AM84 °FFog.No wind94%29.80 "Hg1 mi
8:00 AM82 °FFog.No wind100%29.80 "Hg1 mi
7:30 AM79 °FFog.No wind100%29.80 "Hg1 mi
7:00 AM79 °FFog.No wind100%29.80 "Hg1 mi
6:30 AM79 °FFog.No wind100%29.77 "Hg1 mi
6:00 AM81 °FFog.No wind100%29.77 "Hg1 mi
5:30 AM79 °FFog.No wind100%29.77 "Hg1 mi
5:00 AM81 °FFog.No wind100%29.74 "Hg1 mi
4:30 AM81 °FFog.No wind100%29.74 "Hg1 mi
4:00 AM81 °FFog.No wind100%29.74 "Hg1 mi
3:30 AM81 °FFog.No wind100%29.74 "Hg1 mi
3:00 AM81 °FFog.No wind100%29.74 "Hg1 mi
2:30 AM81 °FFog.No wind100%29.74 "Hg1 mi
2:00 AM81 °FFog.No wind100%29.74 "Hg1 mi
1:30 AM81 °FFog.No wind100%29.74 "Hg1 mi
1:00 AM81 °FFog.No wind100%29.74 "Hg1 mi
12:30 AM82 °FFog.No wind100%29.71 "Hg1 mi
12:00 AM81 °FFog.No wind100%29.71 "Hg1 mi
11:30 PM
Fri, Sep 30
81 °FFog.No wind100%29.71 "Hg1 mi
11:00 PM82 °FFog.No wind100%29.71 "Hg1 mi
10:30 PM82 °FFog.No wind100%29.71 "Hg1 mi
10:00 PM82 °FFog.No wind100%29.71 "Hg1 mi
9:30 PM82 °FFog.No wind100%29.68 "Hg1 mi
9:00 PM82 °FFog.No wind100%29.68 "Hg1 mi
8:30 PM82 °FFog.No wind100%29.68 "Hg1 mi
8:00 PM84 °FFog.No wind100%29.68 "Hg2 mi
7:30 PM84 °FFog.No wind100%29.68 "Hg2 mi
7:00 PM86 °FFog.2 mph94%29.68 "Hg2 mi
6:30 PM86 °FFog.No wind84%29.65 "Hg1 mi
6:00 PM88 °FFog.2 mph79%29.65 "Hg2 mi
5:30 PM90 °FHaze.3 mph75%29.65 "Hg2 mi
5:00 PM90 °FHaze.5 mph75%29.65 "Hg2 mi
4:30 PM91 °FHaze.7 mph67%29.68 "Hg2 mi
4:00 PM91 °FHaze.6 mph63%29.68 "Hg2 mi
3:30 PM91 °FHaze.7 mph63%29.68 "Hg2 mi
3:00 PM91 °FHaze.8 mph59%29.71 "Hg2 mi
2:30 PM93 °FHaze.7 mph63%29.71 "Hg2 mi
2:00 PM91 °FHaze.6 mph67%29.71 "Hg2 mi
Weather by CustomWeather, © 2016

See weather overviewHow to use our weather pages